Regional Weather Roundup
Issued by NWS

Home | Current Version | Previous Version | Text Only | Print | Product List | Glossary Off
Versions: 1 2 3 4 5 6 7 8 9 10 11 12 13 14 15 16 17 18 19 20 21 22 23 24 25 26 27 28 29 30 31 32 33 34 35 36 37 38 39 40 41 42 43 44 45 46 47 48 49 50

000
ASUS43 KMPX 230001
RWRMN
WEATHER ROUNDUP FOR MINNESOTA
NATIONAL WEATHER SERVICE TWIN CITIES/CHANHASSEN MN
600 PM CST THU FEB 22 2018


NOTE: "FAIR" INDICATES FEW OR NO CLOUDS BELOW 12,000 FEET WITH NO
SIGNIFICANT WEATHER AND/OR OBSTRUCTIONS TO VISIBILITY. N/A MEANS
CURRENT SKY AND/OR WEATHER CONDITIONS ARE NOT AVAILABLE.

MNZ060>063-068>070-230100-
   Twin Cities Metro

CITY           SKY/WX    TMP DP  RH WIND       PRES   REMARKS
TWIN CITIES    CLOUDY    29  16  58 E14       30.33F WCI  18
6HR MIN TEMP:  25; 6HR MAX TEMP:  30;

ST PAUL        CLOUDY    29  14  53 E8        30.36F WCI  21
CRYSTAL        CLOUDY    28  14  55 E10       30.33F WCI  19
BLAINE         CLOUDY    28  16  59 E12G17    30.34F WCI  18
LAKEVILLE      FAIR      27  18  69 E9        30.33F WCI  17
EDEN PRAIRIE   FLURRIES  29  15  56 E14       30.30F WCI  18
6HR MIN TEMP:  25; 6HR MAX TEMP:  30; 6HR PCP: TRACE;

SOUTH ST PAUL  MOCLDY    29  15  54 NE6       30.34F WCI  23
LAKE ELMO      MOCLDY    30  14  51 E9        30.38F WCI  22
$$
MNZ001>005-007-008-013>017-022>024-027-028-230100-
   Northwest Minnesota

CITY           SKY/WX    TMP DP  RH WIND       PRES   REMARKS
BEMIDJI        MOCLDY    23   8  52 SE6       30.32F WCI  15
HALLOCK        FAIR      10   7  85 S9        30.30F WCI  -2
ROSEAU         FAIR      18  10  73 S6        30.31F WCI   9
WARROAD        FAIR      18  10  73 S5        30.32S WCI  11
THIEF RVR FALL FAIR      18   9  68 SE7       30.31  WCI   9
CROOKSTON      FAIR      18  12  79 S7        30.32F WCI   8
FOSSTON        FAIR      16   5  62 S3        30.31F
DETROIT LAKES  FAIR      23  10  58 SE9       30.30F WCI  13
MOORHEAD       FAIR      21  14  73 CALM      30.32F
PARK RAPIDS    FAIR      23   5  46 SE6       30.31F WCI  16
MAHNOMEN       CLOUDY    23   8  53 E5        30.30F WCI  17
$$
MNZ006-009>011-018-025>026-230100-
   North Central Minnesota

CITY           SKY/WX    TMP DP  RH WIND       PRES   REMARKS
BAUDETTE       MOCLDY    22   2  42 S8        30.31F WCI  12
FLAG ISLAND    FAIR      18   9  68 S7        30.31S WCI   8
INTL FALLS     CLOUDY    28   5  37 S6        30.34S WCI  22
6HR MIN TEMP:  22; 6HR MAX TEMP:  30;

WASKISH        FAIR      21   5  49 CALM      30.34F
BIG FORK       CLOUDY    27   3  36 S8        30.35F WCI  18
LONGVILLE      CLOUDY    23   5  46 CALM      30.36F
GRAND RAPIDS   CLOUDY    24  10  55 SE6       30.39F WCI  17
CRANE LAKE     CLOUDY    27   3  36 S3        30.39S
ORR            CLOUDY    27   0  31 S7        30.35R WCI  19
COOK             N/A     27   3  36 S5        30.38S WCI  21
WALKER         MOCLDY    23   4  43 SE5       30.33F WCI  17
$$
MNZ012-019>021-037-230100-
   Northeast Minnesota

CITY           SKY/WX    TMP DP  RH WIND       PRES   REMARKS
DULUTH         CLOUDY    20  12  71 E7        30.40F WCI  11
6HR MIN TEMP:  19; 6HR MAX TEMP:  23;

ELY            CLOUDY    27   7  43 S8        30.38S WCI  18
HIBBING        CLOUDY    24   7  48 S5        30.38F WCI  18
EVELETH        MOCLDY    27   5  39 S8        30.40S WCI  18
DULUTH HARBOR  CLOUDY    25  18  74 NE8       30.48F WCI  16
TWO HARBORS    MOCLDY    25  12  58 CALM      30.43F
GRAND MARAIS     N/A     24  15  68 CALM      30.51R
G MARAIS ARPRT CLOUDY    16   9  73 S3        30.42R
$$
MNZ029>031-032-039>041-046>048-054>057-064-230100-
   West Central Minnesota

CITY           SKY/WX    TMP DP  RH WIND       PRES   REMARKS
FERGUS FALLS   MOCLDY    23  12  63 SE7       30.31F WCI  15
WHEATON        LGT SNOW  21  19  93 E10       30.31F VSB 1   WCI  10
MORRIS         SNOW      23  21  93 E14       30.27F VSB 1/2 WCI  11
ALEXANDRIA     LGT SNOW  21  18  88 E12       30.30F VSB 1   WCI   9
ELBOW LAKE     LGT SNOW  21  19  93 SE10      30.30F WCI  10
WADENA         CLOUDY    21  10  63 SE6       30.32F WCI  14
GLENWOOD       LGT SNOW  21  19  93 E12       30.31F VSB 3/4 WCI   9
APPLETON       LGT SNOW  25  21  86 E9        30.26F WCI  15
BENSON         LGT SNOW  23  21  93 E9        30.29F WCI  13
MADISON        LGT SNOW  27  25  93 E13       30.25F WCI  16
WILLMAR        CLOUDY    21  19  93 E13       30.30F WCI   9
$$
MNZ033>034-036-042>043-049>051-058-059-230100-
   Central Minnesota

CITY           SKY/WX    TMP DP  RH WIND       PRES   REMARKS
ST CLOUD       LGT SNOW  20  17  88 NE9       30.34F VSB 3/4 WCI   9
6HR MIN TEMP:  20; 6HR MAX TEMP:  23; 6HR PCP:  0.01;

PAYNESVILLE    LGT SNOW  21  20  96 NE12      30.31F VSB 1   WCI   9
AITKIN         CLOUDY    23   9  54 SE3       30.37F
PINE RIVER     CLOUDY    21   9  58 E6        30.37F WCI  14
BRAINERD       LGT SNOW  23   7  50 E6        30.36F WCI  16
STAPLES        MIX PCPN  19  12  73 E6        30.34S WCI  11
LONG PRAIRIE   LGT SNOW  21  16  79 NE9       30.33F WCI  11
LITTLE FALLS   LGT SNOW  21  12  68 SE5       30.36F WCI  15
LITCHFIELD     CLOUDY    25  21  86 NE10      30.30F WCI  15
BUFFALO        FLURRIES  26  16  66 NE10      30.33F WCI  16
MAPLE LAKE     CLOUDY    26  19  76 E10G16    30.33F WCI  16
HUTCHINSON     LGT SNOW  27  23  87 NE13G18   30.29F WCI  16
$$
MNZ037-044-045-052-053-230100-
   East Central Minnesota

CITY           SKY/WX    TMP DP  RH WIND       PRES   REMARKS
PRINCETON      LGT SNOW  27  16  63 NE6       30.36F WCI  20
CAMBRIDGE      FLURRIES  28  12  50 NE3       30.38F
RUSH CITY      CLOUDY    28   8  43 E5        30.40F WCI  23
MOOSE LAKE     CLOUDY    28   9  43 CALM      30.39F
HINCKLEY       CLOUDY    28   9  43 E6        30.40F WCI  22
CLOQUET        CLOUDY    19   9  63 E7        30.40F WCI  10
MCGREGOR       CLOUDY    27  10  50 SE5       30.39F WCI  21
$$
MNZ071>073-080-081-089-090-097-098-230100-
   Southwest Minnesota

CITY           SKY/WX    TMP DP  RH WIND       PRES   REMARKS
MONTEVIDEO     LGT SNOW  25  21  86 SE14      30.27F VSB 3/4 WCI  13
GRANITE FALLS  LGT SNOW  26  24  91 NE14      30.28F VSB 3/4 WCI  15
CANBY          SNOW      25  24  95 NE8       30.25F VSB 1/2 WCI  16
MARSHALL       LGT SNOW  24  22  91 E10       30.24F VSB 3/4 WCI  14
REDWOOD FALLS  SNOW      24  22  91 E10       30.26F VSB 1/2 WCI  14
OLIVIA         LGT SNOW  23  21  93 NE13G18   30.26F VSB 3/4 WCI  11
PIPESTONE      LGT SNOW  21  19  93 E12       30.18F VSB 1   WCI   9
WORTHINGTON    LGT SNOW  25  24  96 SE15      30.19F FOG     WCI  13
JACKSON        LGT SNOW  27  25  93 E13       30.21F WCI  16
TRACY          LGT SNOW  24  23  96 E10       30.22F WCI  13
SLAYTON        LGT SNOW  22  21  96 NE8       30.20F WCI  13
$$
MNZ065>067-074>077-082>085-091>093-230100-
   South Central Minnesota

CITY           SKY/WX    TMP DP  RH WIND       PRES   REMARKS
MANKATO        LGT SNOW  26  23  88 E15       30.27F FOG     WCI  14
NEW ULM        LGT SNOW  25  21  86 E14       30.26F WCI  13
ST JAMES       LGT SNOW  27  27 100 E16       30.27S WCI  14
FAIRMONT       LGT SNOW  26  24  92 SE16      30.24F FOG     WCI  14
GLENCOE        LGT SNOW  27  24  90 NE9       30.28F WCI  18
FARIBAULT      LGT SNOW  27  21  80 NE10      30.29F WCI  17
OWATONNA       LGT SNOW  27  23  86 E17       30.27F WCI  14
WASECA         LGT SNOW  28  25  86 E17       30.29S VSB 3/4 WCI  16
ALBERT LEA     LGT SNOW  27  25  93 E14       30.28F WCI  15
$$
MNZ078>079-086>088-094>096-230100-
   Southeast Minnesota

CITY           SKY/WX    TMP DP  RH WIND       PRES   REMARKS
ROCHESTER      LGT SNOW  25  23  92 E14       30.30F VSB 1   WCI  13
6HR MIN TEMP:  25; 6HR MAX TEMP:  28; 6HR PCP:  0.02;

RED WING       CLOUDY    30  14  51 E9        30.35F WCI  22
STANTON        LGT SNOW  29  20  70 E15       30.30F WCI  18
DODGE CENTER   LGT SNOW  25  21  86 E12       30.30F WCI  14
WINONA         FLURRIES  32  21  64 E8        30.37F WCI  25
AUSTIN         LGT SNOW  27  25  93 E13G18    30.29F WCI  16
PRESTON        LGT SNOW  25  22  88 E13       30.32F WCI  14
$$
ABBREVIATIONS USED IN REMARKS
   TC - TEMPERATURES IN CELSIUS
  WCI - WIND CHILL INDEX
   HX - HEAT INDEX
  VSB - VISIBILITY
$$




USA.gov is the U.S. government's official web portal to all federal, state and local government web resources and services.